Location: Unspecified
(0.0000°N, 0.0000°E)
Time: 18:13:07
(UTC+00:00)

PAYLOAD B - Visible Passes

Search period start: 18 May 2026 00:00
Search period end: 28 May 2026 00:00
Orbit: 848 x 869 km, 99.0° (Epoch: 18 May)

Date Brightness Start Highest point End Pass type
(mag) Time Alt. Az. Time Alt. Az. Time Alt. Az.
18 May 6.7 20:23:24 11° N 20:23:24 11° N 20:23:33 10° N visible
19 May 6.7 20:13:42 10° NNE 20:13:42 10° NNE 20:13:43 10° NNE visible
24 May 6.9 21:07:23 11° NNW 21:07:23 11° NNW 21:07:35 10° NNW visible
25 May 6.8 20:57:42 12° NNW 20:57:42 12° NNW 20:58:08 10° NNW visible
26 May 6.7 20:48:00 13° N 20:48:00 13° N 20:48:37 10° N visible
27 May 6.6 20:38:18 14° N 20:38:18 14° N 20:39:01 10° N visible
